COSMOS 1275 DEB, 42102

Orbit data source: Space-Track

COSMOS 1275 DEB, 42102 is space debris in LEO originally from a launch on Thu, 04 Jun 1981 UTC launched from the Plesetsk Missile And Space Complex (PKMTR). Debris objects in space refer to the collection of defunct objects orbiting the Earth. Examples of debris include non-operational satellites, rocket bodies, and fragments generated from explosions, collisions, or faulty payload assembly.

Loading next visibility...
Identifier
42102, 1981-053PN
Orbit
LEO
Country
Flag of CISCIS
Related business
Manufacturer
Unknown
Mission
Spacecraft
Bus & Motor
Unknown
Mass
Unknown
Launch date (UTC)
1981-06-04 (45 years ago)
Launch vehicle
Unknown
Launch site
Plesetsk Missile And Space Complex (PKMTR)
Object type
Payload
Rocket body
Debris
Shape & HBR
Unknown shape, 0.1 m
Radar Cross Section
Small (<0.1 m²)

Expand to show TLE details & history
Last TLE update: 1 day ago

TLE from 1 day ago
0 COSMOS 1275 DEB
1 42102U 81053PN  25352.29352825  .00001261  00000-0  10097-2 0  9998
2 42102  83.0104 188.8112 0072657  60.8263 300.0145 13.88810699609481
Epoch: 2025-12-18T07:02Z
TLE epoch observation values (Epoch: 2025-12-18T07:02:40.840Z)
Latitude
-0.00004°
Longitude
-4.01008°
Altitude
909.437 km
Speed
7.411 km/s
True Right ascension
12h 35m 14s
True Declination
0° 00' 00"
Sunlit
Object was in daylight at epoch
Visualization orbit readout
Latitude
Unknown
Longitude
Unknown
Altitude
Unknown
Speed
Unknown
Apparent Right ascension
Unknown
Apparent Declination
Unknown
Sunlit
N/A
Visualization observer readout
Local Sidereal Time
15:40:19
Azimuth
Unknown
Elevation
Unknown
Doppler factor
Unknown
Orbital elements
Apogee altitude
983.027 km
Perigee altitude
876.83 km
Semi-major axis
7,308.066 km
Eccentricity
0.00727
Inclination
83.0104°
RAAN
188.8112°
Arg. of periapsis
60.8263°
True anomaly
299.29029°
Mean anomaly
300.0145°
Eccentric anomaly
299.65272°
Mean motion
3.47408 °/min
Orbital period
103.62 mins
BSTAR
0.0010097
Loading maneuver chart data...
Computing Atmospheric mass density...
Loading historical data...
Loading historical data...
Loading historical data...
Loading historical data...
Loading historical data...
Loading historical data...
Loading historical data...

Documentation

Showing up to 5 results
|